#timestamp,LO_Frequency,Hit 
1503608415.8,286047000.8,N
1503608435.7,286047000.5,N
1503608455.5,286047001.3,N
1503608475.4,286047003.9,N
1503608495.2,286047004.8,N
1503608515.0,286047004.8,N
1503608515.9,286047004.8,N
1503608535.8,286047005.5,N
1503608555.6,286047006.0,N
1503608575.4,286047005.2,N
1503608595.3,286047006.8,N
1503608615.1,286047004.9,N
1503608635.9,286047006.8,N
1503608655.7,286047009.0,N
1503608675.5,286047008.8,N
1503608695.4,286047006.7,N
1503608715.2,286047006.4,N
1503608735.0,286047009.1,N
1503608735.9,286047009.1,N
1503608755.8,286047006.5,N
1503608775.6,286047006.9,N
1503608795.5,286047009.2,N
1503608815.3,286047006.3,N
1503608835.1,286047009.2,N
1503608855.9,286047009.2,N
1503608875.7,286047009.1,N
1503608895.5,286047008.9,N
1503608915.4,286047006.7,N
1503608935.2,286047006.2,N
1503608955.1,286047006.4,N
1503608956.0,286047006.4,N
1503608975.8,286047009.2,P
1503608995.6,286047004.0,N
1503609015.5,286047003.5,N
1503609035.3,286047003.9,N
1503609055.2,286047006.0,N
1503609075.9,286047003.8,N
1503609095.7,286047003.4,N
1503609115.6,286047004.5,N
1503609135.4,286047005.2,N
1503609155.2,286047003.9,N
1503609175.1,286047005.4,P
1503609176.0,286047005.4,P
1503609195.8,286046999.9,N
1503609215.7,286047001.2,N
1503609235.5,286047000.3,N
1503609255.3,286047000.2,N
1503609275.2,286047002.2,N
1503609295.0,286047002.0,N
1503609295.9,286047002.0,N
1503609315.8,286047001.6,N
1503609335.6,286047000.4,N
1503609355.4,286047002.5,N
1503609375.3,286047002.4,N
1503609395.1,286047001.8,N
1503609415.8,286047004.0,N
1503609435.7,286047002.5,N
1503609455.5,286047000.1,N
1503609475.4,286047002.3,N
1503609495.2,286047001.5,N
1503609515.0,286047002.7,N
1503609515.9,286047002.7,N
1503609535.8,286047002.4,N
1503609555.6,286047002.0,N
1503609575.4,286047004.1,N
1503609595.3,286047004.2,N
1503609615.1,286047003.7,N
1503609635.9,286047003.3,N
1503609655.7,286047003.9,N
1503609675.5,286047003.4,N
1503609695.4,286047001.3,N
1503609715.2,286047003.1,N
1503609735.1,286047005.2,P
1503609736.0,286047005.2,P
1503609755.8,286047001.6,N
1503609775.6,286047001.5,N
1503609795.5,286047003.7,N
1503609815.3,286047001.8,N
1503609835.1,286047003.7,N
1503609855.9,286047005.8,P
1503609875.7,286047000.4,N
1503609895.6,286047002.5,N
1503609915.4,286047003.8,N
1503609935.2,286047004.4,N
1503609955.1,286047001.3,N
1503609956.0,286047001.3,N
1503609975.8,286047001.7,N
1503609995.6,286047001.5,N
1503610015.5,286047001.8,N
1503610035.3,286047004.4,N
1503610055.2,286047004.1,N
1503610075.9,286047003.7,N
1503610095.7,286047003.1,N
1503610115.6,286047005.9,P
1503610135.4,286047002.1,N
1503610155.3,286047001.5,N
1503610175.1,286047001.7,N
1503610176.0,286047001.7,N
1503610195.8,286047001.7,N
1503610215.7,286047001.8,N
1503610235.5,286047004.4,P
1503610255.4,286046998.4,N
1503610275.2,286046998.3,N
1503610295.0,286046996.9,N
1503610295.9,286046996.9,N
1503610315.8,286046998.2,N
1503610335.6,286046999.6,N
1503610355.4,286046999.3,N
1503610375.3,286046996.8,N
1503610395.1,286046996.5,N
1503610415.9,286046996.6,N
1503610435.7,286046998.3,N
1503610455.5,286046998.4,N
1503610475.4,286047000.6,N
1503610495.2,286047000.8,N
1503610515.0,286046998.5,N
1503610515.9,286046998.5,N
1503610535.8,286046999.4,N
1503610555.6,286046998.4,N
1503610575.5,286046999.9,N
1503610595.3,286047000.5,N
1503610615.1,286047002.8,N
1503610635.9,286047002.2,N
1503610655.7,286047002.5,N
1503610675.5,286047000.3,N
1503610695.4,286047001.1,N
1503610715.2,286046996.6,N
1503610735.1,286046999.6,N
1503610736.0,286046999.6,N
1503610755.8,286046997.1,N
1503610775.6,286046996.6,N
1503610795.5,286046997.1,N
1503610815.3,286046997.8,N
1503610835.1,286046996.5,N
1503610855.9,286046996.7,N
1503610875.7,286046999.3,N
1503610895.6,286047000.9,N
1503610915.4,286047000.8,N
1503610935.2,286046998.2,N
1503610955.1,286047001.0,N
1503610956.0,286047001.0,N
1503610975.8,286047000.7,N
1503610995.7,286046998.2,N
1503611015.5,286047000.8,N
1503611035.3,286046998.8,N
1503611055.2,286046996.8,N
1503611075.9,286046999.2,N
1503611095.7,286046998.9,N
1503611115.6,286046998.7,N
1503611135.4,286046996.7,N
1503611155.3,286046998.3,N
1503611175.1,286046998.4,N
1503611176.0,286046998.4,N
1503611195.8,286046998.2,N
1503611215.7,286047000.7,N
1503611235.5,286046999.7,N
1503611255.3,286047000.0,N
1503611275.2,286047001.9,N
1503611295.0,286047002.3,N
1503611295.9,286047002.3,N
1503611315.8,286047004.4,N
1503611335.6,286047005.8,P
1503611355.4,286047003.4,N
1503611375.3,286047003.9,N
1503611395.1,286047000.2,N
1503611415.9,286046998.4,N
1503611435.7,286047000.0,N
1503611455.5,286047002.1,N
1503611475.4,286047000.6,N
1503611495.2,286047000.7,N
1503611515.0,286047000.8,N
1503611515.9,286047000.8,N
1503611535.8,286047002.8,N
1503611555.6,286047003.8,N
1503611575.5,286047001.4,N
1503611595.3,286047004.2,N
1503611615.1,286047004.2,N
1503611635.9,286047002.5,N
1503611655.7,286046999.7,N
1503611675.5,286047002.5,N
1503611695.4,286046998.1,N
1503611715.2,286046999.4,N
1503611735.1,286046996.9,N
1503611736.0,286046996.9,N
1503611755.8,286046999.0,N
1503611775.6,286047001.2,N
1503611795.5,286047002.1,N
1503611815.3,286047002.7,N
1503611835.1,286047001.9,N
1503611855.9,286047005.6,N
1503611875.7,286047005.4,N
1503611895.6,286047005.8,N
1503611915.4,286047003.0,N
1503611935.2,286047003.3,N
1503611955.1,286047003.4,N
1503611956.0,286047003.4,N
1503611975.8,286047007.6,P
1503611995.7,286047004.4,N
